Dewpoint
-9 -10 -9 -9 -10 -9 -8 -9 -9 -9 -9 -9 -8 -8 -8 -7 -7 -7 -7 -6 -5 -5 -4 -4 -3 -3 -2
-10 -10 -10 -8 -8 -7 -8 -9 -10 -10 -10 -9 -9 -9 -9 -8 -8 -7 -7 -6 -6 -6 -5 -5 -5 -4 -4
-10 -10 -8 -8 -8 -9 -11 -12 -12 -11 -10 -10 -9 -9 -8 -8 -8 -8 -7 -7 -7 -7 -6 -6 -6 -5 -4
-8 -8 -9 -10 -11 -12 -12 -11 -10 -10 -10 -9 -9 -9 -9 -9 -9 -8 -8 -8 -8 -8 -7 -7 -7 -7 -6
-9 -9 -10 -11 -11 -11 -10 -10 -10 -10 -11 -10 -11 -10 -11 -10 -9 -9 -9 -9 -8 -8 -7 -7 -7 -7 -7
-9 -10 -12 -11 -10 -10 -10 -10 -10 -10 -10 -11 -11 -11 -11 -11 -10 -9 -9 -8 -8 -8 -7 -7 -7 -7 -6
-11 -11 -10 -10 -10 -11 -10 -10 -10 -11 -10 -10 -12 -11 -11 -12 -10 -10 -9 -9 -8 -8 -8 -8 -7 -7 -7
-10 -10 -10 -10 -10 -10 -11 -11 -11 -12 -10 -11 -12 -11 -11 -12 -12 -10 -9 -9 -8 -8 -8 -7 -7 -7 -6
-10 -11 -13 -13 -12 -11 -11 -11 -11 -11 -11 -11 -11 -11 -11 -12 -11 -10 -9 -9 -8 -8 -8 -7 -7 -7 -7
-13 -13 -13 -13 -12 -11 -11 -11 -12 -12 -12 -11 -11 -10 -11 -11 -11 -10 -8 -8 -9 -8 -8 -8 -7 -7 -7
-13 -13 -12 -12 -11 -11 -11 -11 -12 -12 -11 -11 -11 -11 -11 -11 -10 -9 -7 -7 -7 -7 -6 -6 -6 -6 -7
-12 -11 -11 -11 -11 -11 -10 -10 -10 -10 -10 -10 -11 -10 -10 -10 -9 -8 -7 -7 -6 -6 -6 -6 -5 -5 -5
-12 -11 -11 -10 -10 -10 -10 -10 -10 -10 -9 -9 -9 -9 -9 -9 -9 -7 -6 -7 -6 -6 -6 -6 -5 -5 -5
-11 -11 -10 -10 -10 -10 -10 -10 -10 -10 -10 -9 -9 -8 -8 -8 -7 -7 -7 -7 -6 -6 -6 -6 -5 -5 -5
-11 -10 -10 -10 -10 -10 -10 -10 -10 -10 -10 -10 -9 -8 -9 -9 -8 -8 -7 -6 -6 -6 -6 -6 -5 -5 -5
-10 -9 -10 -10 -10 -10 -10 -9 -9 -10 -10 -9 -9 -9 -9 -10 -9 -7 -7 -6 -6 -6 -6 -5 -5 -3 -1
-9 -9 -10 -10 -10 -9 -9 -9 -9 -9 -9 -9 -8 -8 -9 -8 -9 -8 -6 -6 -6 -6 -6 -5 -5 -3 -3
Wind_Speed
38 38 32 31 31 30 29 31 34 38 39 42 41 40 40 42 44 44 43 42 41 40 40 40 39 39 40
41 39 36 35 32 33 34 37 38 36 35 34 37 39 38 39 40 39 40 38 40 40 40 40 40 40 40
42 43 38 31 33 40 37 38 33 33 33 33 34 35 36 37 38 39 39 39 39 39 39 39 39 39 40
37 32 35 40 37 38 39 37 37 36 38 35 34 36 37 38 39 38 38 38 37 37 38 39 39 41 43
35 37 38 37 35 36 38 41 41 36 39 34 39 43 43 39 37 35 34 34 35 35 36 36 37 38 39
36 35 35 32 37 36 38 41 46 32 31 48 44 43 42 41 36 35 36 37 37 37 37 37 38 39 39
33 29 33 34 37 42 40 39 40 44 41 44 45 43 42 43 38 36 36 36 37 37 37 37 38 39 39
27 32 31 37 35 32 35 37 40 43 31 41 45 43 44 47 39 31 31 31 31 32 33 35 36 38 39
28 33 35 28 25 26 31 33 39 43 38 31 34 43 46 44 26 29 30 32 31 32 33 34 36 38 42
37 32 26 23 23 25 30 32 34 38 28 33 38 33 33 24 31 46 38 34 29 31 33 35 36 38 43
30 27 26 26 27 30 29 29 32 33 35 30 34 36 24 39 49 40 38 39 36 30 25 26 28 30 38
25 27 30 29 32 31 29 27 27 30 28 23 29 31 36 41 42 40 39 40 29 32 35 33 30 31 33
26 30 29 31 34 33 31 29 30 28 25 22 23 28 32 36 39 38 40 45 32 43 42 40 35 31 33
28 29 29 33 35 33 34 33 34 32 27 24 24 27 30 30 29 34 36 32 46 46 45 39 32 30 32
29 28 31 35 34 32 31 31 32 34 34 29 26 27 25 25 30 29 37 41 42 45 45 41 33 29 29
27 29 33 34 34 31 29 29 31 32 34 33 30 33 34 29 22 31 36 39 43 45 43 40 36 28 20
29 31 32 32 30 29 29 29 31 31 33 29 26 28 28 29 35 31 34 36 39 43 44 39 33 24 24
Wind_Direction
304 312 311 311 311 308 308 306 303 304 301 298 294 293 291 288 287 286 285 281 278 275 273 272 269 267 264
308 310 311 312 310 308 310 306 303 299 300 299 296 293 291 290 289 287 284 284 282 279 277 273 270 266 266
302 313 309 314 312 309 308 306 305 303 301 299 298 295 294 292 290 288 285 282 279 276 275 272 270 266 264
297 306 310 312 310 309 311 312 310 310 306 302 299 297 295 293 290 286 283 281 278 274 272 269 267 263 260
309 309 310 311 310 313 308 310 309 310 306 308 305 304 305 300 295 290 285 283 280 276 273 270 267 263 260
309 306 307 307 312 311 309 309 310 315 305 306 311 306 305 304 298 293 289 284 280 276 274 271 268 266 263
304 301 305 310 312 309 308 306 303 306 310 302 313 303 306 308 302 295 290 285 281 277 274 270 266 264 260
303 304 305 304 304 302 303 306 306 312 310 299 315 305 313 314 314 300 294 288 284 279 275 269 266 263 260
306 306 312 310 309 312 312 314 310 314 320 304 311 310 316 320 323 317 302 293 288 280 274 269 266 262 258
313 316 320 323 328 323 320 315 312 312 322 315 316 320 321 317 313 329 331 329 305 291 281 273 267 263 261
317 326 332 330 330 330 329 323 317 308 327 315 311 317 302 303 323 334 334 335 329 320 311 300 287 268 257
324 327 329 332 334 334 333 331 326 322 331 330 312 317 316 308 305 327 339 342 334 327 325 317 302 288 275
323 329 332 334 335 337 336 336 332 338 341 340 329 329 323 307 301 321 330 337 338 334 330 323 310 297 289
324 331 334 336 337 339 337 339 336 341 349 349 343 338 328 331 322 322 334 320 334 336 329 330 320 309 297
333 334 335 335 337 339 338 338 337 341 344 349 348 339 339 341 330 334 332 333 334 342 338 334 337 337 327
336 336 335 336 336 338 339 340 338 342 345 348 343 345 346 347 342 338 337 337 344 349 346 343 348 11 18
337 337 337 335 337 341 342 342 341 341 343 344 348 348 336 327 338 352 337 342 348 353 353 356 353 7 21
Height
1416 1411 1407 1403 1399 1395 1391 1387 1382 1377 1371 1365 1360 1355 1350 1345 1340 1336 1332 1329 1326 1323 1321 1320 1319 1319 1319
1408 1403 1400 1395 1390 1385 1381 1377 1372 1366 1361 1355 1349 1344 1339 1333 1328 1323 1319 1316 1313 1311 1308 1307 1306 1306 1305
1400 1397 1392 1388 1381 1377 1372 1366 1361 1355 1350 1345 1339 1334 1328 1323 1318 1312 1308 1305 1302 1299 1296 1295 1294 1293 1293
1398 1391 1387 1381 1377 1368 1360 1356 1350 1345 1338 1335 1328 1323 1317 1311 1305 1300 1295 1291 1288 1286 1284 1282 1281 1281 1281
1393 1388 1380 1374 1369 1363 1355 1347 1341 1338 1328 1323 1317 1310 1301 1296 1291 1286 1282 1278 1275 1273 1271 1270 1268 1267 1267
1388 1381 1375 1370 1363 1357 1350 1342 1327 1330 1322 1311 1308 1297 1291 1285 1279 1275 1270 1266 1263 1260 1258 1256 1255 1254 1253
1382 1375 1369 1364 1357 1350 1343 1337 1329 1320 1315 1301 1296 1287 1281 1273 1267 1262 1258 1253 1249 1246 1244 1242 1241 1240 1240
1376 1369 1364 1358 1352 1345 1337 1330 1321 1313 1311 1296 1286 1277 1269 1261 1254 1250 1245 1241 1237 1234 1232 1229 1227 1226 1225
1368 1362 1355 1350 1345 1338 1331 1324 1312 1304 1300 1292 1280 1270 1261 1248 1243 1240 1235 1230 1226 1221 1218 1215 1213 1211 1209
1359 1353 1348 1343 1338 1333 1326 1318 1311 1298 1294 1288 1277 1272 1252 1241 1239 1231 1223 1219 1213 1209 1205 1201 1199 1197 1192
1352 1346 1341 1336 1332 1327 1321 1314 1305 1298 1290 1285 1273 1267 1264 1245 1229 1225 1219 1210 1203 1197 1192 1188 1184 1181 1176
1347 1342 1336 1330 1325 1319 1313 1307 1301 1293 1284 1279 1271 1264 1254 1244 1232 1219 1214 1206 1198 1190 1183 1176 1171 1167 1163
1344 1337 1332 1326 1319 1312 1306 1299 1292 1286 1279 1273 1266 1258 1251 1241 1231 1218 1209 1197 1192 1182 1174 1166 1158 1152 1146
1339 1333 1327 1321 1314 1307 1299 1292 1284 1277 1273 1267 1260 1253 1244 1237 1228 1216 1208 1199 1185 1175 1166 1155 1146 1138 1131
1335 1328 1323 1316 1309 1303 1296 1289 1282 1273 1265 1259 1254 1248 1241 1232 1222 1215 1204 1194 1184 1170 1158 1147 1135 1126 1117
1331 1325 1318 1312 1305 1299 1293 1286 1278 1271 1263 1256 1249 1240 1233 1227 1222 1211 1202 1193 1180 1168 1156 1145 1129 1121 1112
1328 1321 1315 1308 1302 1295 1289 1283 1275 1269 1262 1256 1249 1243 1235 1227 1217 1214 1202 1191 1179 1167 1156 1144 1135 1124 1117